GFSCGP_sfc_thetae_000.txt.gz
Theta_e
312 308 306 311 315 316 316 316 315 318 326 325 323 323 327 334 334 334 337 339 339 340 344 348 351 353 354 357 360 362 362 364 364 362 355 355 353 356 360 358 365 365 363 363
308 305 311 313 314 314 315 314 315 319 325 325 322 322 327 330 334 334 335 338 340 341 343 347 351 352 353 356 360 363 364 365 365 360 363 360 362 357 358 360 363 364 363 364
306 308 311 311 311 311 314 314 315 317 322 325 322 320 323 327 333 335 336 338 341 342 341 344 348 350 352 354 359 362 365 366 367 367 363 363 362 363 358 359 361 363 365 365
307 311 308 307 308 313 311 317 317 317 317 313 323 310 319 324 328 332 335 336 337 342 344 345 346 349 351 353 358 364 366 368 368 369 365 367 356 352 352 356 355 360 365 364
307 307 306 306 308 312 312 317 316 316 316 316 318 314 317 322 322 328 333 336 336 338 342 344 346 347 351 354 356 360 366 370 371 369 370 363 362 355 354 354 360 363 363 364
310 313 310 309 311 312 316 315 315 316 314 308 315 313 312 316 321 324 330 335 337 337 339 343 346 348 349 352 355 358 365 370 370 369 368 367 363 361 353 356 353 350 352 356
307 308 310 310 308 311 313 312 305 304 304 304 316 313 314 319 321 324 323 330 337 338 338 340 343 345 348 350 353 356 362 365 367 367 366 367 366 365 362 360 354 352 347 348
302 299 307 310 308 308 309 311 305 300 301 304 313 308 313 322 324 325 326 329 336 338 337 339 342 345 348 350 352 355 359 364 366 365 369 371 369 363 361 362 355 351 347 346
304 303 310 310 311 311 310 308 314 309 310 305 308 313 318 321 322 325 326 330 332 337 338 338 341 344 347 350 353 359 363 363 363 363 366 368 369 366 362 364 363 355 356 347
310 303 309 310 311 312 311 314 306 309 302 300 305 308 310 317 318 321 324 328 332 337 338 338 340 343 347 349 352 356 359 362 363 363 363 363 365 367 365 365 363 359 357 355
312 308 306 309 306 306 308 307 310 311 308 302 301 306 318 318 320 320 322 330 331 335 338 339 340 342 346 348 350 354 357 359 361 361 365 364 362 363 365 364 364 363 358 354
313 310 303 304 310 311 311 309 311 305 306 308 307 306 319 320 321 322 322 324 327 335 339 341 342 343 344 347 348 350 354 356 359 363 366 362 362 362 362 363 362 358 354 351
313 308 302 304 306 309 306 309 311 312 312 310 304 306 319 320 321 323 326 329 331 336 339 342 343 344 345 346 351 350 353 354 356 360 360 360 360 360 361 358 352 353 349 346
317 309 305 301 304 307 304 305 308 309 306 307 307 310 315 317 319 321 324 330 332 337 339 342 343 346 347 350 356 357 353 355 356 357 359 360 359 359 359 356 343 342 343 343
317 309 310 308 309 309 307 306 306 305 307 306 309 310 315 318 319 321 323 326 331 336 338 341 343 350 355 355 357 356 355 356 357 358 357 359 362 359 355 350 343 341 341 343
314 309 311 308 310 309 306 308 307 306 307 308 309 310 318 320 321 321 322 324 331 336 338 341 345 348 351 352 353 355 356 356 358 359 358 361 362 356 348 348 346 347 345 342
312 311 311 305 310 308 304 308 308 307 309 309 306 311 316 316 319 322 323 328 331 336 338 340 344 347 351 352 356 354 356 358 358 358 359 361 358 352 347 347 346 345 343 343
312 314 312 306 309 299 308 315 313 309 309 311 313 315 317 319 324 328 330 328 332 337 339 341 342 346 350 351 351 353 354 356 357 358 358 358 355 349 349 347 346 345 342 339
314 312 308 303 303 307 309 314 311 309 308 312 314 317 318 321 324 328 330 332 335 339 342 343 344 347 350 348 350 351 351 353 354 355 356 353 352 347 345 345 344 345 343 341
314 315 309 307 301 299 312 317 321 320 308 315 316 317 318 322 316 318 331 330 332 338 340 342 342 345 345 346 348 349 349 351 352 354 355 351 350 348 345 346 346 345 345 342
308 310 305 305 304 307 317 318 321 307 309 317 322 323 324 323 326 331 333 334 337 340 341 343 343 342 345 347 348 348 349 350 354 356 354 350 351 351 350 349 346 345 343 341
308 306 304 307 304 301 318 318 313 321 326 326 327 328 328 329 332 334 335 337 339 339 339 340 342 345 348 350 350 351 351 356 357 356 350 349 350 348 349 347 343 342 342 342
306 310 307 309 308 317 319 318 323 327 326 327 328 329 330 329 330 332 333 335 336 336 337 339 343 347 350 353 353 352 358 358 356 350 347 348 348 347 347 345 340 338 340 338
314 318 312 313 314 316 317 320 323 324 324 327 328 328 329 327 329 330 332 335 337 340 340 341 342 345 349 352 353 356 354 355 354 349 347 345 347 345 344 343 341 342 340 337
313 316 314 313 315 316 317 317 319 320 323 325 327 327 327 331 332 335 335 338 339 341 342 342 343 346 348 351 351 352 352 351 348 346 344 344 343 342 344 336 326 341 331 325
307 310 312 309 315 314 309 313 315 316 318 321 322 322 323 327 328 331 333 338 339 342 344 344 345 347 348 349 350 352 350 349 346 341 341 341 341 343 341 336 331 301 302 301

GFSCGP_sfc_thetae_003.txt.gz
Theta_e
314 309 307 311 315 316 317 316 315 319 322 322 322 322 326 332 332 331 331 333 336 338 343 346 348 349 350 353 356 360 362 369 363 359 360 358 354 358 357 357 366 367 364 365
310 306 312 315 316 315 315 315 316 319 320 322 321 321 326 332 332 332 332 332 334 337 340 344 347 349 349 352 356 363 365 370 367 361 363 362 359 355 355 356 365 364 365 365
308 310 313 313 314 313 314 314 315 316 322 324 321 319 322 328 333 334 334 335 335 335 336 342 345 348 350 352 358 364 370 372 370 371 365 367 366 360 359 356 358 362 364 364
310 313 311 311 311 314 311 317 317 317 315 312 320 310 320 323 326 332 334 334 334 336 338 341 345 348 349 353 357 366 372 373 373 374 366 368 356 350 349 352 354 359 365 364
308 309 310 308 310 315 312 318 317 317 317 316 315 312 317 322 321 326 333 335 335 336 338 340 343 347 350 352 355 361 373 375 375 373 370 360 361 353 353 351 367 365 368 361
311 315 312 312 313 315 317 315 317 316 315 308 315 312 315 317 322 325 330 335 337 338 338 342 344 347 349 352 354 360 371 375 377 374 371 370 368 362 352 354 354 353 352 357
309 310 313 313 310 314 314 312 305 304 305 304 315 314 317 324 324 326 326 329 336 339 338 340 343 345 349 353 356 360 369 374 375 371 371 370 369 370 366 363 355 356 347 349
304 302 310 312 310 309 311 311 305 300 302 306 314 309 315 325 326 326 328 327 332 338 340 338 342 347 351 353 359 361 366 372 375 373 374 375 375 361 359 363 357 352 349 349
306 305 313 313 313 311 310 308 314 309 311 307 310 315 320 324 324 325 325 326 327 335 339 339 340 344 349 351 357 361 366 370 373 366 375 375 374 372 361 369 368 357 363 350
310 305 312 311 313 312 310 314 307 310 303 302 307 310 311 318 320 322 324 324 327 332 339 340 340 342 348 349 354 361 365 369 368 369 372 369 370 373 371 372 369 366 363 358
312 310 309 312 308 307 307 308 311 311 309 303 303 308 319 320 323 322 324 325 327 331 337 340 340 342 345 347 351 355 359 366 367 369 369 370 367 369 370 368 368 367 364 362
313 310 306 308 313 313 311 308 309 307 307 309 309 308 321 322 322 323 324 326 328 332 337 340 341 341 342 347 347 349 353 354 362 368 371 370 371 369 367 368 369 368 365 362
313 308 303 306 310 312 308 309 310 311 312 311 305 308 321 322 322 324 324 325 328 331 335 339 340 342 343 345 348 347 351 350 355 364 364 367 366 368 367 368 368 367 366 360
317 311 307 303 307 309 306 307 309 309 306 308 308 311 317 320 320 322 324 326 328 330 338 339 341 344 346 348 350 351 350 350 352 357 359 365 367 367 366 368 367 363 362 357
314 308 310 310 311 311 308 306 307 306 308 306 310 311 316 320 321 323 324 325 326 328 335 340 342 350 353 351 354 355 353 356 355 361 359 365 370 368 367 367 366 362 358 354
314 309 311 307 310 309 307 309 308 308 308 308 310 310 319 321 324 323 323 324 324 326 329 340 344 347 355 355 358 358 358 359 361 364 363 368 371 368 366 365 362 356 356 352
313 311 311 306 311 310 305 308 309 310 311 309 306 311 316 318 321 324 324 324 325 329 331 336 343 347 352 353 360 359 362 362 364 367 368 372 372 366 360 360 357 354 352 352
310 311 309 306 310 299 310 317 315 312 313 313 313 314 316 320 324 326 325 325 327 331 332 335 341 347 354 353 353 358 359 365 367 368 368 371 369 361 355 353 352 352 353 351
314 311 306 304 305 309 311 316 315 315 314 317 315 315 315 319 320 323 326 326 329 330 333 337 345 348 360 357 362 362 359 362 364 362 367 369 365 358 353 349 350 353 351 353
310 313 309 308 302 301 310 319 322 320 309 318 318 317 315 317 314 318 326 330 334 335 334 341 346 350 354 359 356 359 355 358 360 362 365 368 363 357 351 350 350 352 354 350
302 305 303 305 304 307 318 320 322 307 311 327 327 326 323 315 321 333 336 334 336 336 344 349 349 353 357 359 354 356 355 354 357 359 360 361 358 354 351 352 353 351 350 346
301 303 303 305 303 301 321 319 313 322 327 328 329 329 330 322 330 334 335 337 338 339 343 345 348 351 353 357 356 357 358 362 364 362 360 356 353 351 351 353 349 347 346 345
304 308 306 308 308 322 325 324 326 327 327 329 329 330 331 331 332 335 338 340 341 342 343 344 343 350 352 358 359 359 366 366 363 362 355 352 353 352 353 352 349 345 346 342
311 317 312 314 318 320 322 325 326 326 326 328 332 332 333 333 334 335 335 335 335 338 341 343 345 347 351 357 356 360 361 362 360 353 350 350 349 349 349 349 344 341 339 339
310 316 313 315 319 319 320 322 323 324 327 326 329 330 332 332 332 334 337 339 338 339 341 343 345 347 349 354 356 356 358 359 352 348 347 350 349 348 347 341 335 344 345 333
306 308 313 311 320 318 316 319 320 319 319 321 323 324 328 331 331 335 337 339 340 340 342 344 345 348 350 352 353 354 355 355 352 348 348 347 346 347 343 335 328 302 305 302

GFSCGP_sfc_thetae_006.txt.gz
Theta_e
315 309 306 310 312 313 313 314 312 316 322 319 320 319 319 324 329 326 329 329 332 335 340 344 345 347 349 353 357 359 360 366 367 363 358 358 356 362 360 361 361 364 369 368
310 305 310 314 314 312 313 312 313 318 322 321 319 321 322 328 329 329 327 329 330 332 337 342 345 346 347 351 355 361 361 366 365 364 363 362 359 357 358 361 364 366 364 369
306 309 312 312 312 311 312 311 313 314 319 321 318 316 322 327 329 330 331 331 331 333 333 341 344 345 348 350 355 358 363 364 365 366 365 366 366 360 358 361 361 365 367 367
310 313 310 309 310 313 308 315 314 314 314 310 319 307 320 321 327 328 329 330 331 333 336 339 343 346 348 351 356 361 364 366 367 365 363 360 355 354 359 361 359 363 367 366
307 309 308 307 309 313 311 316 314 314 313 315 316 311 317 324 321 327 329 331 332 335 335 337 343 346 349 352 356 360 365 366 367 366 365 361 360 356 357 355 368 364 367 365
311 314 312 311 312 313 316 314 313 314 312 306 313 311 312 318 320 323 329 332 334 335 337 339 343 347 349 352 356 358 365 367 368 368 365 365 358 358 354 359 359 358 359 362
309 309 312 313 309 312 311 309 304 302 304 303 313 312 316 323 325 325 324 330 335 337 337 338 341 344 348 350 354 357 363 365 368 368 365 364 364 362 365 367 359 358 353 356
303 301 309 313 309 308 308 308 304 298 301 304 313 308 314 326 327 328 328 330 335 337 338 339 342 344 348 350 354 357 361 364 368 367 367 366 365 362 362 364 359 358 354 356
304 304 313 312 313 311 308 305 311 306 308 305 309 313 318 323 325 324 324 328 329 336 338 339 343 345 348 350 353 356 362 365 368 368 368 368 366 364 361 364 364 361 360 359
309 303 311 312 313 313 309 312 303 306 300 300 306 309 312 318 323 326 326 326 328 330 338 340 341 346 348 351 353 358 360 364 368 368 368 368 368 366 365 363 364 359 360 360
311 308 307 312 309 307 307 305 307 308 307 302 302 307 321 323 326 326 326 327 327 329 337 338 341 344 349 352 352 355 357 363 366 368 367 368 367 367 366 367 366 361 363 357
312 308 304 306 313 313 311 308 307 302 304 307 307 308 320 325 326 325 326 327 329 330 334 338 342 342 345 348 350 353 356 360 364 366 367 366 367 368 366 364 366 363 364 360
312 307 303 303 309 312 308 309 309 307 308 306 303 307 320 324 326 328 326 327 331 337 338 338 341 342 343 345 348 351 355 357 363 365 364 364 365 365 365 365 363 364 363 360
316 309 307 302 305 310 308 308 309 307 302 304 306 311 316 321 322 325 328 329 331 339 342 339 340 343 343 345 347 350 352 355 359 361 362 362 363 364 363 365 364 363 363 360
312 306 309 308 309 310 309 308 308 307 308 304 308 309 317 320 323 323 327 330 331 336 339 343 345 347 346 346 347 349 350 352 354 358 361 361 365 364 364 364 364 364 364 363
311 306 308 306 310 309 308 310 309 308 309 309 309 309 318 322 323 326 326 328 328 330 332 341 344 351 353 348 348 348 348 349 353 355 356 361 364 365 364 363 364 364 365 362
310 307 308 304 308 308 304 309 310 310 310 309 306 312 318 317 320 325 329 328 329 330 332 339 346 347 351 352 350 348 348 351 351 355 357 359 363 365 364 364 364 364 362 359
311 308 309 305 308 297 309 314 313 311 312 312 312 315 317 318 321 323 324 325 326 331 331 333 330 348 353 354 351 352 352 354 353 361 359 361 365 364 364 363 363 363 358 354
312 311 306 304 304 307 309 313 313 311 311 316 315 318 317 319 320 320 323 325 327 327 337 334 332 339 354 354 355 357 354 353 361 358 363 364 369 366 364 362 360 358 353 352
309 317 307 306 300 300 311 318 322 319 308 323 324 323 322 321 312 315 325 327 326 326 330 341 342 344 355 357 356 356 357 356 354 361 364 369 369 365 359 357 354 351 353 352
302 305 302 304 302 306 316 319 320 307 311 325 326 326 326 322 326 333 338 342 341 331 336 347 355 353 357 359 358 356 357 358 360 367 367 370 368 363 357 352 351 351 352 354
300 298 300 306 304 301 320 318 312 321 326 325 326 327 327 331 332 332 334 338 341 341 340 348 360 361 362 362 361 361 361 366 368 366 367 367 361 353 351 350 351 351 349 345
298 304 302 305 306 319 325 326 327 327 326 328 331 329 328 328 330 334 336 338 341 341 349 349 355 360 363 365 361 359 363 364 363 363 363 360 355 351 351 352 346 344 348 344
307 311 305 308 314 320 323 325 326 328 329 330 331 332 334 333 333 334 337 340 344 347 349 350 351 352 356 359 361 363 363 364 362 360 356 353 351 352 354 351 349 346 344 343
309 310 311 310 322 322 323 325 326 326 328 327 327 326 327 332 332 336 339 342 344 346 348 352 353 355 357 362 360 362 364 363 356 352 350 347 347 348 347 331 330 343 324 325
308 307 307 311 321 320 320 323 322 321 322 323 323 323 326 327 328 330 334 336 337 339 342 344 351 353 353 357 358 360 361 357 352 348 347 347 345 345 338 330 323 301 303 300

GFSCGP_sfc_thetae_009.txt.gz
Theta_e
307 302 300 302 304 306 306 305 305 309 317 315 316 316 320 319 320 320 326 327 329 331 335 340 342 343 345 350 349 349 348 354 354 353 353 351 350 350 351 351 355 352 355 356
303 301 306 309 308 306 306 304 304 310 317 314 317 316 320 320 318 321 323 327 328 330 332 337 339 341 343 346 349 349 347 355 354 356 354 350 349 351 351 351 352 354 357 355
301 304 311 308 307 306 305 303 305 306 314 317 317 313 315 318 321 323 325 327 330 330 331 334 337 339 341 345 349 350 349 354 356 356 355 355 352 351 349 350 353 357 357 357
304 309 308 305 304 306 302 309 309 308 307 304 316 304 312 317 324 325 326 324 326 330 332 334 336 338 340 345 349 351 352 354 355 356 353 349 346 342 348 350 351 355 358 356
301 306 305 304 304 307 305 311 309 309 306 307 310 304 307 317 317 319 323 324 326 328 330 334 337 339 341 344 348 353 353 353 356 355 354 351 347 347 350 349 347 354 355 355
306 310 307 307 309 308 310 308 308 307 304 298 305 306 305 310 316 319 324 326 326 327 330 334 338 340 340 345 349 352 355 355 357 354 355 353 350 348 346 344 350 353 353 352
302 304 309 309 304 306 306 299 296 295 295 294 302 305 306 317 319 322 324 325 328 328 329 330 335 338 340 343 347 352 354 353 357 356 353 355 352 350 347 347 350 351 349 349
295 294 304 309 305 302 301 301 296 289 293 296 302 300 305 319 323 326 328 329 330 329 329 330 336 338 341 342 347 351 354 353 357 357 357 354 355 351 349 351 351 351 350 351
296 297 308 309 310 307 301 298 302 294 297 295 299 303 310 318 319 322 323 325 327 329 329 331 334 338 341 342 348 349 355 356 357 359 359 356 356 355 353 351 354 350 348 350
301 295 305 309 309 308 304 303 296 299 290 291 298 299 302 308 316 320 321 322 324 327 329 332 334 337 341 343 347 350 354 356 359 358 360 359 357 354 353 351 352 352 347 350
305 300 300 305 303 301 302 300 298 297 298 293 292 298 306 310 317 319 321 323 323 327 330 332 335 338 342 344 347 349 353 357 359 360 360 359 359 357 355 355 354 352 351 349
306 301 296 300 307 309 306 300 299 294 291 295 296 298 312 313 318 322 321 322 322 323 329 333 335 337 341 343 344 348 355 357 359 361 360 360 360 359 357 354 355 354 351 350
307 301 294 297 301 306 303 304 301 301 295 294 293 298 311 312 313 317 317 322 322 322 331 334 334 338 341 343 344 347 352 358 360 361 360 360 359 360 359 356 358 358 352 352
312 301 300 295 297 300 300 303 304 300 296 295 297 298 304 309 314 316 320 320 322 322 328 331 334 338 340 343 344 345 350 356 359 361 360 358 358 359 360 359 356 357 357 352
301 299 301 303 305 305 303 304 304 301 300 296 298 299 303 307 316 317 319 321 322 324 329 329 334 335 339 341 343 345 348 351 357 358 358 357 359 359 360 359 359 355 355 354
299 297 301 300 305 305 303 305 306 304 304 303 303 302 306 309 310 320 319 318 317 325 332 331 333 334 335 338 341 344 346 349 353 355 356 357 357 358 358 358 358 357 355 354
296 296 298 295 302 302 298 303 305 306 306 305 300 304 306 307 309 313 318 320 316 319 328 331 331 338 337 339 341 342 346 349 350 352 355 355 355 356 356 357 356 356 355 356
297 295 298 295 298 292 302 309 309 308 309 308 306 307 309 309 312 315 315 315 315 320 323 328 335 335 343 341 342 343 345 346 348 348 352 354 355 355 357 356 355 357 357 355
302 298 296 293 294 298 305 308 306 305 304 311 315 318 316 315 310 309 315 318 315 320 319 321 327 336 342 344 343 342 342 344 344 345 347 352 353 355 357 356 355 357 356 351
301 303 298 294 292 292 300 313 318 314 303 320 321 319 319 318 307 307 322 326 320 320 319 318 328 326 341 342 344 342 341 342 341 343 347 351 353 355 357 356 355 352 350 347
297 299 296 298 294 300 311 317 318 302 306 319 321 320 319 315 318 322 325 327 329 329 326 321 327 332 341 344 345 342 342 341 345 345 354 356 359 358 356 351 348 346 345 347
293 293 295 299 297 295 318 316 310 315 320 324 325 325 320 320 322 323 326 324 328 335 327 347 338 342 347 346 348 346 343 346 356 359 362 360 355 353 349 345 346 345 345 342
293 299 297 298 301 315 319 315 320 322 324 325 326 330 329 327 330 333 329 330 332 337 343 347 350 351 353 352 352 352 355 358 358 360 357 351 349 348 345 343 343 343 339 337
304 309 302 306 307 313 316 319 327 325 323 323 326 327 325 323 325 325 328 335 338 340 342 346 349 347 349 353 355 356 356 358 358 354 349 346 345 344 345 343 341 340 339 338
307 306 306 307 313 317 319 322 323 323 323 321 322 323 322 322 321 322 322 324 330 339 344 347 348 351 350 353 354 354 356 356 349 347 345 344 345 344 326 314 317 327 312 324
305 306 303 303 310 311 314 316 319 319 318 318 318 320 322 320 318 320 319 321 324 325 332 345 347 349 350 352 351 351 350 348 345 342 342 343 342 329 323 319 312 301 301 300

GFSCGP_sfc_thetae_012.txt.gz
Theta_e
304 298 299 300 300 301 301 299 299 304 308 312 312 312 316 326 329 329 330 331 332 333 337 339 339 342 343 347 349 350 349 349 350 348 348 346 346 347 348 350 348 349 350 352
299 297 302 305 304 303 301 300 300 304 308 311 311 312 317 321 324 327 328 329 331 333 335 336 338 341 342 345 348 349 349 349 349 349 350 348 348 348 349 349 350 350 350 351
298 300 306 306 304 302 300 299 300 300 306 311 314 310 313 318 320 324 327 329 331 332 332 334 337 339 342 344 346 346 349 350 350 350 351 348 348 347 346 347 348 350 353 353
301 305 305 304 303 302 296 305 304 304 300 297 313 299 312 315 315 318 323 325 327 330 332 334 337 337 340 344 346 347 348 352 352 353 350 348 346 344 347 346 348 352 355 353
299 302 302 302 303 305 301 306 305 305 301 297 303 301 306 316 312 318 320 323 327 329 331 331 336 338 340 343 346 346 346 353 353 353 351 349 346 347 344 346 347 348 353 354
302 306 305 305 307 307 307 302 302 301 300 293 301 304 301 309 314 318 322 324 326 329 330 332 336 338 339 342 345 347 346 347 352 353 351 350 347 345 343 342 343 347 352 352
301 303 304 305 300 303 301 294 291 290 292 291 298 299 303 313 319 321 322 322 324 328 330 331 332 335 337 339 343 347 346 345 349 352 351 350 349 347 345 342 345 348 349 347
294 293 300 304 303 298 296 296 292 285 287 291 298 294 302 314 322 324 325 325 325 325 329 331 332 335 336 338 343 346 347 346 349 350 351 352 350 350 348 343 348 349 350 351
290 293 302 305 306 304 299 292 299 290 292 290 294 298 304 309 315 322 323 324 325 325 326 329 333 335 337 338 342 345 348 348 350 351 350 352 352 351 349 347 349 350 349 350
296 290 299 304 305 305 300 301 293 288 287 287 291 294 299 303 307 314 320 322 325 326 326 329 331 335 338 339 343 347 350 349 352 353 353 351 351 353 350 348 349 349 348 349
301 295 297 300 298 299 299 296 291 294 292 290 286 294 302 304 307 311 320 325 326 327 328 328 330 335 338 340 344 347 349 349 351 353 353 354 353 351 352 350 350 351 348 346
300 297 294 298 302 305 304 299 295 294 289 292 295 295 305 307 308 314 318 323 328 329 327 329 330 333 336 339 343 345 350 350 351 354 354 354 354 354 352 350 351 350 349 347
300 297 293 291 296 297 297 301 300 291 291 293 290 292 304 305 306 314 317 319 322 321 323 325 330 332 335 339 341 345 349 351 353 354 354 355 354 354 352 351 351 351 350 346
299 293 293 293 296 297 295 299 300 298 295 294 294 294 298 302 306 309 315 321 321 323 323 325 329 332 336 339 341 345 347 353 354 355 355 354 355 355 355 354 352 351 352 347
293 286 292 296 300 302 301 300 301 297 298 295 298 294 298 300 302 307 311 317 317 322 324 325 329 332 336 339 341 344 348 351 354 354 355 355 356 357 357 355 354 352 354 349
292 287 292 293 300 302 300 302 303 302 301 300 297 296 301 304 305 308 313 317 317 318 324 327 330 333 336 339 340 342 346 352 354 354 354 356 357 356 356 357 356 353 352 352
289 288 288 287 297 300 296 302 302 302 302 302 296 299 302 303 305 306 309 311 315 318 325 328 331 334 336 339 341 341 345 351 353 354 356 356 355 355 355 356 356 355 352 350
291 290 288 288 291 289 298 307 306 302 304 304 303 303 305 306 308 307 312 312 314 316 319 329 332 333 337 340 342 343 344 347 351 352 354 356 355 354 355 355 355 354 355 351
298 294 289 287 288 294 301 304 303 299 299 310 305 309 306 307 306 306 313 311 313 315 318 319 328 333 333 337 341 342 343 345 347 349 352 354 355 353 354 353 354 354 354 353
299 298 293 292 289 288 296 308 313 309 304 317 316 314 314 310 302 305 317 323 315 313 315 318 319 328 339 336 340 340 341 343 344 346 349 353 354 353 352 353 353 355 355 354
294 294 292 293 294 295 309 313 314 300 300 316 317 315 314 313 311 316 320 324 324 324 320 317 314 319 331 341 338 337 339 341 345 347 348 350 353 352 353 354 355 355 352 350
293 293 295 295 294 293 307 312 304 308 320 323 325 323 324 325 327 326 325 323 325 323 325 336 318 319 325 335 339 337 337 342 344 345 345 345 350 351 355 353 352 351 347 345
293 297 296 296 298 304 307 312 322 321 319 321 322 323 324 324 324 326 328 333 336 337 338 343 341 335 342 335 341 337 339 340 340 341 345 348 351 354 353 350 348 344 343 341
301 305 299 301 305 308 317 321 321 319 320 322 322 321 322 320 321 321 322 324 326 327 328 329 334 342 344 345 342 340 340 343 345 350 353 352 349 347 347 345 345 341 339 336
302 304 303 301 306 309 314 318 319 318 320 320 320 321 320 319 318 319 319 320 322 324 324 324 322 321 321 346 351 353 353 355 353 350 349 347 344 344 332 319 331 337 331 334
304 303 302 302 307 308 308 317 319 316 315 316 316 317 318 320 318 318 317 318 321 322 323 320 319 318 321 322 334 353 354 352 348 344 344 342 331 327 324 321 314 303 302 303

GFSCGP_sfc_thetae_015.txt.gz
Theta_e
303 299 294 297 298 300 299 297 297 301 306 308 309 310 324 328 329 329 331 332 333 335 338 340 341 341 342 344 345 346 346 348 349 347 347 345 345 344 346 348 348 351 352 353
297 297 301 304 302 300 299 297 297 301 305 305 306 308 324 327 327 330 330 332 333 335 336 338 339 340 340 343 345 346 347 347 349 349 349 347 345 345 346 348 347 348 351 351
297 298 303 303 301 299 296 296 298 298 302 304 308 306 312 326 328 329 331 332 334 333 334 337 337 338 339 341 345 347 347 348 348 348 348 345 345 344 344 345 345 348 349 349
297 302 302 301 300 300 293 301 302 300 297 293 307 297 306 314 323 325 328 330 331 332 334 335 337 336 338 341 346 347 348 348 347 348 347 346 344 342 344 345 346 348 350 350
297 300 300 298 301 301 299 303 302 301 297 293 298 297 301 312 312 317 323 327 330 332 333 333 335 337 339 341 344 347 348 347 347 348 347 346 343 344 342 343 345 346 349 350
301 304 304 301 304 304 305 300 298 297 294 289 297 296 297 306 312 315 319 324 327 330 332 334 336 338 339 341 344 346 345 347 348 348 347 346 345 343 341 340 344 344 346 350
299 302 301 304 299 301 300 293 287 285 287 289 296 295 300 307 316 318 318 321 326 328 330 331 332 335 337 339 342 344 343 346 348 348 348 347 346 345 343 342 343 342 345 345
293 291 301 302 300 297 295 295 286 282 284 290 294 291 298 311 315 321 322 322 324 326 328 330 331 333 337 338 341 343 343 344 348 349 349 349 348 347 346 343 344 345 347 348
291 293 301 305 303 303 295 293 298 288 287 286 291 296 301 307 309 315 319 321 323 324 327 329 331 332 335 337 339 343 342 342 346 349 349 349 349 348 346 344 345 346 348 349
294 289 296 302 303 302 300 299 291 285 285 285 288 291 294 300 304 310 317 319 321 324 325 328 330 332 334 336 339 342 344 343 344 347 349 349 349 349 348 346 345 346 347 348
293 291 294 297 295 295 294 296 290 291 289 287 287 291 300 303 305 307 313 319 322 323 325 326 329 332 333 336 337 341 344 344 344 345 347 347 349 350 349 346 347 347 347 347
296 287 291 294 298 303 300 297 292 290 287 288 291 292 301 306 307 307 309 315 320 324 326 327 327 330 332 334 336 340 342 344 345 347 348 347 348 349 350 348 347 349 347 347
297 288 285 288 292 295 295 297 297 295 290 293 289 290 300 304 304 305 310 313 316 321 324 326 326 326 331 334 336 339 342 345 346 347 348 348 348 348 349 350 350 349 349 345
296 287 287 286 288 294 293 297 299 296 291 294 295 293 296 300 301 303 307 311 316 320 323 323 323 325 330 334 336 339 342 345 346 348 349 348 349 350 349 350 349 350 349 346
290 285 288 291 294 296 296 296 299 295 297 294 297 293 297 300 302 303 305 307 315 317 320 323 324 327 330 333 337 340 342 346 347 347 348 349 350 352 352 350 349 349 349 348
289 286 288 289 295 297 296 298 300 299 299 298 298 293 300 303 302 301 304 306 309 315 317 319 326 327 329 332 336 339 342 345 348 348 348 350 351 352 352 352 350 349 348 348
288 286 285 283 292 292 291 297 299 300 300 300 296 298 300 300 301 301 303 306 309 311 314 319 322 324 329 333 337 338 342 345 348 348 349 350 351 352 352 353 352 349 348 349
287 286 286 284 287 285 296 302 304 301 301 300 299 301 302 304 306 305 305 305 308 311 315 320 324 326 330 335 338 339 342 345 347 348 349 351 352 351 352 353 352 351 350 350
293 290 285 283 284 291 298 302 301 299 298 304 301 303 303 303 303 303 307 308 310 312 314 320 327 328 331 335 338 339 340 343 346 347 348 351 352 352 352 352 353 354 352 349
293 293 290 286 284 285 294 305 311 307 297 314 309 304 303 303 298 305 312 316 312 311 311 317 325 328 328 333 338 338 338 341 345 348 349 352 353 353 352 353 353 355 355 352
288 292 288 288 286 292 303 313 312 296 297 315 315 313 307 302 304 308 316 319 323 316 318 315 313 323 329 331 335 337 338 339 344 348 351 351 353 354 353 353 354 354 354 353
289 290 290 290 289 288 312 312 306 311 316 321 320 320 321 322 325 327 330 331 331 331 334 340 337 331 324 323 330 335 337 341 342 345 346 349 351 353 353 352 353 354 353 352
288 295 294 295 296 303 309 312 319 318 317 320 320 323 324 323 322 323 324 325 324 323 322 323 323 326 326 340 333 329 334 339 342 342 343 344 349 352 352 351 352 352 352 350
295 300 298 299 303 308 312 315 317 318 317 318 319 319 320 319 320 320 321 321 321 321 321 320 319 317 316 322 330 333 339 335 335 339 341 343 347 349 351 353 354 352 349 347
293 299 298 300 305 309 313 314 316 316 317 317 319 319 318 318 316 315 316 317 319 319 319 319 318 317 317 320 323 323 322 327 334 336 338 341 346 349 345 327 342 349 340 339
300 300 297 296 306 307 309 313 315 314 314 313 316 316 318 317 315 316 316 317 318 320 320 320 320 318 317 321 330 328 326 327 335 342 347 347 347 330 325 323 318 307 312 315

GFSCGP_sfc_thetae_018.txt.gz
Theta_e
301 297 294 294 297 299 299 296 297 300 304 304 308 310 322 327 328 328 329 330 331 333 337 339 340 343 343 345 345 345 346 348 347 347 346 346 346 346 347 348 350 351 352 353
295 296 300 301 300 299 298 296 296 299 303 300 300 304 322 326 327 328 329 330 332 333 335 338 339 340 341 342 343 344 346 348 349 348 348 349 347 347 347 350 350 352 352 353
297 297 304 303 299 297 295 295 296 297 300 300 303 302 307 324 327 330 331 332 333 333 333 335 337 338 340 341 342 343 345 347 349 350 349 346 347 347 346 347 349 349 352 353
296 301 301 299 299 299 291 299 300 299 295 291 303 293 304 316 322 326 328 330 332 334 336 336 337 338 338 340 343 345 346 346 348 349 348 346 345 344 346 346 348 349 351 351
296 298 298 297 298 300 297 301 299 299 295 292 296 293 297 313 317 321 325 328 332 334 336 336 337 339 340 340 341 345 346 346 347 348 348 346 345 345 345 346 347 348 350 351
300 302 302 300 301 302 302 299 295 294 292 287 294 294 292 304 315 322 326 329 331 332 335 336 338 340 340 341 341 343 345 346 348 347 347 346 345 343 342 343 344 346 349 350
297 300 299 301 297 298 298 293 286 285 286 289 293 293 298 304 314 317 323 326 329 332 333 334 334 336 339 338 340 342 344 344 347 346 346 346 346 345 344 344 345 345 346 348
292 289 299 301 298 295 294 292 286 282 282 288 292 290 295 305 312 318 320 323 327 329 332 334 335 335 337 338 339 342 344 344 346 346 346 347 347 346 346 346 346 346 347 349
291 292 300 301 301 302 293 293 295 286 286 285 289 294 301 305 306 313 317 319 320 324 329 331 334 335 336 337 339 341 343 344 345 347 347 347 347 347 346 347 347 347 348 350
292 289 296 302 302 300 296 297 290 284 283 282 287 289 294 299 304 307 312 317 320 322 325 328 331 333 336 338 339 342 343 343 345 347 348 348 348 349 349 348 346 346 348 351
292 289 290 296 295 297 293 291 288 291 286 284 283 290 297 301 304 305 309 316 319 321 323 325 329 332 334 336 339 340 342 343 343 347 348 348 348 349 349 348 347 347 348 349
294 286 288 291 295 301 302 297 291 290 286 285 286 291 301 302 305 307 308 312 319 322 323 326 327 330 331 333 336 338 341 342 343 345 348 348 349 350 349 348 349 349 347 349
294 286 283 286 291 294 292 297 295 293 288 290 287 291 304 302 304 306 306 308 313 318 321 324 325 327 330 332 334 337 339 342 343 344 345 347 348 349 348 348 349 349 349 348
295 286 285 284 286 291 291 294 294 295 292 293 293 295 297 300 302 304 305 307 311 314 316 319 323 326 329 332 333 335 338 341 343 344 344 345 346 348 349 349 349 348 350 348
290 285 286 289 292 293 293 294 295 292 295 292 296 296 298 300 300 303 306 306 309 312 315 320 322 324 327 331 334 336 337 341 344 344 344 344 347 348 348 350 350 350 349 349
288 285 286 287 293 293 292 295 296 296 296 295 297 294 299 303 303 303 305 306 306 310 315 320 323 325 327 331 333 336 338 341 343 344 344 346 347 348 348 348 349 350 349 350
286 285 284 282 290 290 288 294 296 297 297 297 294 299 301 300 301 302 305 305 306 307 313 318 321 324 327 330 334 335 338 342 343 343 345 347 348 348 349 350 349 348 348 349
285 285 284 283 286 282 291 298 302 298 300 300 301 301 302 304 307 306 306 307 306 307 310 314 318 323 324 329 332 336 339 341 343 343 345 347 348 348 350 350 349 349 349 348
291 285 283 282 282 289 293 301 303 301 299 302 301 302 302 304 304 305 306 305 307 308 310 313 318 321 325 327 332 336 338 341 343 344 345 347 349 349 350 350 350 351 349 348
289 290 285 283 282 282 293 305 311 308 296 312 308 303 303 302 297 302 308 312 309 312 312 315 321 327 326 330 334 336 337 340 341 345 347 349 350 350 349 351 351 352 352 350
283 285 283 284 284 288 299 309 315 296 299 315 317 317 303 301 305 311 326 330 332 335 334 318 320 320 323 332 335 335 337 338 343 346 349 350 351 351 351 352 353 353 353 352
283 283 283 285 284 283 305 310 306 310 316 317 319 319 312 315 324 328 327 326 326 328 334 336 334 335 338 334 335 335 336 341 345 347 349 349 351 352 352 352 353 353 353 352
283 290 288 290 290 298 308 307 315 317 315 316 316 318 322 323 324 326 323 322 322 321 321 322 320 323 328 337 336 334 336 340 341 343 345 349 351 352 354 353 352 352 353 351
292 295 292 293 297 302 309 314 314 315 315 316 318 319 319 319 321 319 319 319 319 320 319 320 318 318 320 324 327 328 331 340 341 337 340 344 348 349 353 354 353 352 352 350
290 292 291 292 298 305 311 313 312 315 316 316 318 317 316 316 315 316 317 318 319 320 320 321 319 318 320 324 329 331 331 329 335 341 337 340 344 344 351 352 351 352 354 349
293 290 290 290 299 302 305 311 314 313 315 315 316 316 317 317 317 320 320 321 323 324 326 328 329 329 328 328 329 328 328 328 328 335 341 338 342 345 349 331 324 307 317 310

GFSCGP_sfc_thetae_021.txt.gz
Theta_e
310 304 301 304 305 304 303 303 304 308 311 313 315 317 323 331 333 332 333 333 334 336 340 344 346 347 349 351 352 353 353 356 354 352 349 349 349 351 354 356 359 362 362 363
304 301 306 307 305 304 302 302 303 306 309 308 309 311 316 328 331 333 334 334 334 337 339 342 344 346 347 349 352 354 355 357 356 354 354 353 354 353 357 357 360 361 362 363
302 304 308 305 303 301 302 301 303 304 306 308 308 307 311 325 331 334 336 337 336 337 338 340 342 344 346 348 352 355 358 359 358 358 355 355 357 358 356 356 358 360 362 363
303 308 305 304 303 303 298 304 304 304 303 301 309 301 311 316 325 329 333 335 336 337 340 341 342 344 345 349 352 356 358 360 358 361 357 357 350 349 352 355 357 359 362 363
301 303 303 302 303 306 301 305 304 305 303 303 304 302 308 316 319 326 330 333 336 338 340 341 342 344 347 349 349 352 357 359 360 361 361 355 355 353 354 355 360 363 363 362
305 308 307 306 307 307 308 305 305 304 303 296 302 302 304 309 315 323 330 333 336 338 340 342 344 346 347 348 348 351 355 357 359 360 360 360 359 357 353 354 353 354 356 358
303 303 306 308 304 306 306 302 296 294 294 295 305 301 305 312 318 320 327 332 335 339 340 341 343 344 347 348 350 350 354 355 358 358 359 360 360 360 359 357 353 355 353 354
297 295 304 306 305 302 303 302 296 291 293 296 303 299 304 313 316 322 325 331 335 337 339 341 344 346 348 349 350 350 351 354 356 357 358 359 361 356 357 359 354 353 353 355
297 297 305 307 307 307 302 299 305 297 297 296 300 304 308 312 314 318 322 324 329 334 337 339 344 346 348 349 350 351 351 353 356 356 357 358 359 358 357 360 360 355 361 356
302 298 305 306 308 307 304 307 297 298 291 291 297 299 302 309 312 315 318 321 325 328 333 338 341 344 347 348 351 351 352 353 355 356 357 356 358 359 359 360 360 360 360 360
301 300 298 305 302 301 300 300 302 302 299 293 292 297 309 312 317 317 318 321 324 327 329 333 339 343 346 346 348 350 351 352 354 356 357 357 357 357 359 359 360 360 361 361
300 299 298 300 306 308 306 303 303 297 296 298 298 298 309 313 316 318 319 321 324 329 331 333 335 339 342 345 345 347 349 350 353 355 357 356 358 358 357 358 359 361 361 361
300 297 296 298 302 303 303 305 304 304 303 298 295 298 311 312 312 315 316 319 322 326 330 333 333 335 339 342 345 346 347 348 351 354 355 356 357 357 357 358 360 361 361 361
301 296 297 296 298 299 298 300 304 303 299 299 299 302 307 310 311 313 316 320 322 324 329 332 334 338 340 342 344 345 347 349 350 351 353 354 356 357 357 359 360 360 361 361
299 293 295 296 296 297 297 297 299 299 302 300 302 302 306 310 312 315 317 320 320 320 323 327 330 338 341 342 344 345 346 349 351 352 351 353 357 358 359 359 359 360 361 360
297 293 295 292 296 296 295 298 299 299 300 300 301 301 309 311 314 315 316 318 320 321 321 325 330 336 338 341 343 344 346 348 351 352 351 354 356 358 358 359 360 360 360 360
294 294 293 289 294 295 292 297 299 300 302 302 298 304 309 309 311 313 316 319 321 323 325 327 328 334 339 340 344 344 346 350 350 348 353 355 356 356 357 358 359 358 358 359
292 293 293 289 292 285 298 304 305 304 305 305 305 307 309 312 316 318 320 319 321 322 323 327 324 331 341 339 339 346 346 349 350 351 353 355 355 355 357 357 357 358 359 358
295 293 288 286 288 293 296 300 306 306 304 313 313 310 310 312 314 317 319 319 321 323 326 325 325 327 339 341 345 347 347 349 350 350 352 354 355 355 357 356 356 357 358 358
294 295 290 288 284 284 297 304 312 314 300 318 320 321 319 311 306 312 323 320 319 320 322 323 327 330 334 338 339 345 344 347 349 351 353 356 358 357 357 357 359 359 359 357
289 289 286 287 286 291 300 307 318 301 303 320 321 322 323 321 314 322 327 326 334 334 326 326 333 338 340 342 341 345 346 347 350 352 355 357 358 358 359 360 360 359 359 357
288 288 287 287 285 283 301 305 301 314 320 322 323 322 321 326 329 323 333 337 341 341 338 337 341 344 345 344 346 346 348 351 353 355 356 359 360 358 358 360 361 360 358 356
286 291 292 291 290 300 304 307 316 321 320 322 322 323 323 326 329 331 335 336 337 336 337 344 343 341 343 347 350 347 350 351 353 354 357 358 360 361 361 360 359 357 358 353
295 299 294 294 296 299 303 309 314 319 320 322 324 322 324 327 329 332 331 330 329 329 329 330 333 334 336 340 342 343 344 352 353 353 355 358 357 359 361 359 358 357 355 352
294 295 294 295 299 302 303 306 313 318 321 323 321 322 323 326 325 327 326 327 328 329 330 332 335 336 336 338 338 338 339 340 341 347 351 351 353 355 358 360 360 359 361 354
295 294 292 292 301 302 303 311 316 317 320 321 320 323 324 326 323 325 324 326 328 329 334 336 338 338 337 335 336 337 339 339 338 339 339 340 344 348 352 355 356 312 310 316

GFSCGP_sfc_thetae_024.txt.gz
Theta_e
312 306 303 307 310 311 311 310 310 313 318 316 317 317 320 327 332 332 337 339 339 340 344 345 348 349 351 353 356 357 357 361 360 356 354 352 349 351 352 353 359 363 365 367
308 304 308 310 309 308 308 307 309 314 316 314 315 315 321 325 331 333 336 338 339 341 342 344 347 348 349 352 355 358 359 361 361 358 358 354 353 351 353 355 360 364 365 369
305 307 310 308 308 306 306 306 308 309 313 314 313 312 316 319 325 331 335 339 340 341 341 343 345 346 348 350 354 357 360 361 362 363 358 356 355 354 352 354 357 362 366 367
307 311 308 307 306 307 303 309 308 308 308 305 315 305 315 318 321 325 331 335 338 341 343 344 344 345 347 350 354 358 361 362 363 364 360 362 352 350 352 356 356 359 366 365
305 307 306 305 306 309 305 309 307 307 306 307 309 307 312 318 316 320 327 332 337 341 343 344 345 345 347 350 352 356 362 366 366 365 366 358 359 355 356 355 365 369 368 367
308 312 310 309 310 310 310 307 306 307 305 300 307 308 309 313 317 320 327 332 337 340 342 345 347 347 347 350 353 355 362 368 367 366 363 367 366 362 355 358 355 356 358 361
306 307 310 311 307 310 308 305 299 297 297 298 309 306 310 316 320 321 323 327 337 340 342 344 346 347 347 349 352 354 360 364 364 363 364 364 365 366 365 362 357 361 355 355
301 298 306 311 309 306 306 305 299 294 296 299 308 303 309 319 321 322 325 326 333 339 342 343 346 348 349 349 353 355 359 362 363 363 367 370 369 360 360 364 359 358 356 357
302 302 309 310 311 311 306 303 308 302 304 301 305 308 314 317 318 320 322 324 327 337 341 343 345 348 350 352 355 359 361 364 363 360 367 369 368 368 361 368 367 361 367 359
308 302 308 308 311 311 309 310 301 303 296 295 301 304 306 312 315 319 320 323 326 333 339 342 345 346 350 352 354 357 360 363 364 364 364 363 365 369 369 370 368 369 366 367
309 307 306 309 306 305 305 305 306 306 303 298 297 303 314 314 317 318 321 324 326 330 335 339 342 346 348 351 354 355 356 360 360 364 366 365 364 365 366 366 369 371 368 370
309 307 303 304 310 311 309 307 307 301 301 303 303 303 313 315 317 320 321 324 327 330 332 335 338 342 346 348 351 353 355 355 359 362 366 366 367 367 364 367 368 371 370 370
308 303 300 302 307 310 307 308 309 308 308 304 300 304 315 316 316 320 321 323 326 329 332 336 336 338 342 346 350 350 352 353 355 361 359 361 363 364 366 368 368 370 370 371
304 305 303 300 304 307 304 306 308 307 303 303 305 307 311 312 314 317 318 320 322 327 330 332 334 337 340 346 352 355 350 352 353 354 357 361 364 365 366 369 369 370 371 371
304 301 303 306 303 303 306 305 307 306 307 304 307 307 311 314 315 317 319 321 321 323 325 329 334 339 344 346 352 356 353 354 354 358 355 361 366 368 368 368 369 370 371 370
302 300 301 300 302 301 301 304 305 307 308 308 308 308 315 317 317 317 318 319 320 321 322 324 328 336 339 344 347 349 355 353 356 360 359 363 366 368 368 369 369 370 370 370
298 299 298 297 301 301 297 302 304 305 307 307 304 310 315 314 315 316 317 318 319 322 324 326 329 332 337 338 345 347 352 354 357 359 362 364 366 367 368 369 370 368 369 370
297 297 298 296 299 291 303 310 308 306 307 309 310 311 314 315 317 319 320 320 321 322 324 327 327 329 332 336 336 347 350 358 358 361 362 365 364 365 366 368 367 368 368 367
299 297 294 292 293 299 301 303 304 305 306 311 311 313 314 316 317 317 320 322 324 326 327 328 329 330 338 335 339 343 349 352 355 360 361 363 363 363 364 366 366 368 367 367
298 298 294 294 289 290 301 306 312 310 303 313 317 318 320 324 314 315 322 322 324 326 327 328 329 331 332 337 339 343 346 349 352 358 358 364 365 365 364 366 367 369 368 366
291 293 291 291 290 296 304 309 316 300 309 321 322 323 325 324 326 332 336 333 332 332 332 334 333 332 337 342 342 343 347 348 354 356 356 361 366 366 367 369 369 367 366 364
290 289 289 291 289 288 304 304 302 313 320 320 322 325 326 329 332 334 336 337 334 334 337 341 335 336 344 349 349 347 355 355 358 359 357 363 366 362 360 369 369 367 366 365
289 293 292 294 294 303 305 306 310 311 313 319 319 321 325 327 330 335 337 337 337 340 343 345 341 346 349 353 354 353 356 357 357 358 359 360 362 362 366 367 365 360 365 358
296 299 294 295 298 301 304 307 309 311 312 315 320 321 325 325 330 334 338 338 340 340 342 345 346 344 348 355 358 359 359 359 359 359 360 361 361 360 362 359 360 359 357 357
296 298 296 297 300 302 304 306 309 310 315 318 320 323 326 327 327 336 337 337 339 338 340 342 343 343 344 346 346 346 348 350 356 358 358 360 359 360 360 363 359 358 364 354
298 296 294 294 301 301 303 308 311 312 313 317 319 322 328 326 328 330 330 333 336 338 340 341 342 342 342 343 345 348 350 350 347 346 343 345 347 349 353 355 358 314 319 311

GFSCGP_sfc_thetae_027.txt.gz
Theta_e
320 314 312 312 317 316 315 313 312 317 321 319 318 320 323 327 330 331 336 339 339 339 342 344 347 348 349 352 356 360 362 368 363 358 355 354 350 353 351 352 358 361 362 365
312 309 314 315 313 313 313 312 312 316 319 319 318 317 322 325 328 331 334 337 339 341 341 342 345 347 347 351 356 364 365 369 366 360 362 358 357 351 351 353 362 361 363 367
308 309 313 310 309 308 310 309 311 312 316 318 317 315 318 323 327 332 334 339 340 341 341 342 343 345 347 350 357 362 367 369 368 368 364 363 360 357 351 353 353 359 364 366
310 313 310 309 307 309 305 311 312 311 311 308 316 306 316 320 321 327 331 336 338 340 343 344 343 345 346 351 354 364 367 369 368 371 362 363 351 348 349 352 354 358 366 364
309 309 309 307 308 310 307 312 310 310 310 310 311 309 315 319 317 321 326 331 337 339 342 344 345 345 347 349 351 358 368 369 369 369 368 359 358 350 352 352 365 365 371 367
311 315 312 311 312 312 313 310 309 309 307 302 308 309 311 316 319 322 325 328 333 337 341 345 347 347 346 348 350 356 367 369 371 370 368 370 362 359 352 355 354 354 355 362
308 310 313 313 310 312 310 306 299 298 299 299 309 307 311 319 321 323 324 327 330 335 340 343 345 345 346 349 352 356 365 368 371 370 368 367 369 366 371 369 354 357 353 353
303 301 309 312 311 308 308 307 301 295 296 300 308 304 310 320 323 325 327 328 332 334 339 342 345 347 348 350 354 357 363 368 370 369 369 369 372 362 360 365 357 355 353 355
304 304 312 313 313 313 308 305 310 305 306 303 305 309 315 319 320 322 324 326 328 333 337 342 345 348 350 350 355 359 362 367 369 368 370 371 370 369 363 366 368 362 366 357
310 305 311 312 313 313 312 312 303 305 299 299 304 307 307 314 317 321 322 324 327 331 337 341 344 347 351 350 354 359 363 366 368 368 369 369 372 372 370 372 371 366 368 372
311 310 309 312 308 307 308 308 308 308 305 301 301 305 316 317 319 319 322 324 327 329 335 340 344 346 350 352 352 355 360 365 367 367 369 369 369 370 372 370 372 372 374 375
312 309 305 307 312 313 312 309 310 303 304 305 306 308 317 318 319 321 322 325 327 329 334 340 342 345 346 349 352 353 355 357 365 367 369 368 370 369 369 371 370 374 373 374
312 307 303 306 309 311 308 310 311 310 309 306 302 305 318 318 318 322 322 325 328 330 333 336 340 342 344 346 352 352 356 355 357 364 364 369 369 368 367 370 371 373 374 374
309 307 305 304 307 309 306 308 310 310 305 306 307 309 313 316 318 321 323 325 327 330 332 334 335 337 342 347 354 357 354 356 357 358 360 364 368 368 369 370 373 372 374 373
308 304 307 309 311 311 308 307 308 307 309 305 309 310 314 316 318 320 322 324 324 327 329 331 333 338 343 350 357 359 355 359 359 361 361 363 369 372 373 372 373 373 373 373
307 302 307 306 309 307 306 310 309 309 309 310 310 311 318 320 320 320 320 321 321 322 325 328 331 334 340 343 351 356 360 358 359 363 361 365 369 371 372 374 373 374 373 373
301 302 304 301 307 306 301 307 309 310 312 311 307 313 318 317 317 318 320 321 321 322 324 326 328 329 336 340 345 348 358 360 360 362 365 365 369 370 372 374 374 372 372 374
299 301 302 300 304 295 307 313 312 310 312 314 314 316 317 318 320 321 322 322 323 324 325 327 327 329 333 333 334 346 347 362 363 364 363 367 367 370 372 372 372 373 373 371
301 299 298 297 299 303 306 310 309 308 308 314 313 315 316 317 318 319 322 323 324 325 327 328 329 330 338 334 336 339 346 356 362 362 365 365 368 369 370 370 371 372 372 371
300 301 296 298 295 296 306 310 312 313 304 315 315 315 316 318 313 319 333 335 333 329 331 331 330 331 332 337 335 336 338 348 359 362 365 368 370 369 370 371 372 373 373 371
293 295 293 294 294 300 309 313 314 302 311 323 318 319 321 320 326 334 337 337 339 339 339 338 340 339 338 340 338 346 346 347 356 359 364 369 371 371 372 372 373 373 372 369
293 292 293 294 293 292 309 308 305 311 316 318 321 321 321 326 329 331 334 338 340 340 339 336 338 342 342 341 345 353 356 360 366 366 365 369 371 366 365 373 373 373 372 370
291 297 294 296 297 307 309 308 311 312 312 315 317 320 321 321 325 329 332 339 341 341 343 344 344 345 347 354 355 354 367 365 367 368 370 371 372 370 371 371 372 366 369 362
299 302 296 298 301 303 306 309 310 310 311 313 315 317 321 321 326 328 333 340 341 342 343 344 346 347 351 359 359 360 363 362 361 363 367 367 366 366 368 362 363 361 359 359
298 300 298 298 301 303 305 307 308 309 311 312 316 320 320 322 325 330 333 341 342 342 342 346 348 348 349 352 352 353 355 361 360 362 362 363 361 362 365 366 360 360 365 354
299 297 295 295 303 303 305 308 309 308 310 314 316 316 319 322 326 332 333 338 341 341 344 346 347 347 347 349 349 352 354 354 353 357 357 356 357 359 359 359 361 332 329 320